Location: Prague
(50.0830°N, 14.4670°E)
Time: 02:51:19
(UTC+01:00)

Oscar 11 - Pass Details

Date: 06 December 2021
Orbit: 611 x 625 km, 97.6° (Epoch: 17 January)

Event Time Altitude Azimuth Distance (km) Brightness Sun altitude
Rises 04:51:43 0° 21° (NNE) 2,918 10.7 -26.8°
Reaches altitude 10° 04:54:07 10° 31° (NNE) 2,004 10.0 -26.4°
Maximum altitude 04:58:03 32° 95° (E) 1,068 8.8 -25.8°
Drops below altitude 10° 05:01:56 10° 160° (SSE) 1,981 9.9 -25.1°
Sets 05:04:18 0° 170° (S) 2,879 10.7 -24.8°
